{"data":{"norad_id":61790,"epoch":"2026-05-25T04:38:14.351424Z","epoch_age_seconds":55000,"freshness":"FRESH","line1":"1 61790U 24199BH  26145.19322166  .00001907  00000+0  16692-3 0  9999","line2":"2 61790  97.3260 346.1899 0006936 136.0161 224.1615 14.97776917128598","mean_motion":14.97776917,"eccentricity":0.0006936,"inclination_deg":97.326,"raan_deg":346.1899,"arg_perigee_deg":136.0161,"mean_anomaly_deg":224.1615,"bstar":0.00016692,"rev_number":12859,"period_min":96.142488487823,"perigee_km":568.94494033457,"apogee_km":578.58862125929,"semimajor_km":6951.9037807969,"source":"CELESTRAK","updated_at":"2026-05-25T13:38:02.564534Z"}}